Weather in Tsentralny

Russia / Ryazan Oblast     53°40′36″N   39°37′35″E
temp.,
°C
wind,
m/s
gust,
m/s
humid.,
%
clouds,
%
prec.,
mm/h
press.,
hPa
HPBL,
m
7 march, sun
sun700:00−12w46910 0.0 101798
03:00−13wsw47910 0.0 1015130
06:00−12sw5119126 0.0 1013205
09:00−8sw9178363 0.0 1009685
12:00−4sw111781100 0.1 10051080
15:00−3sw111892100 1.2 10001236
18:00−2sw101891100 1.0 9961161
21:00−2w91493100 2.6 995949
8 march, mon
mon800:00−4w7148298 0.5 997840
03:00−8wsw6158349 0.5 1000375
06:00−10wsw613887 0.0 1000286
09:00−7wsw6128953 0.0 1000584
12:00−5w7108599 0.0 1001880
15:00−4w71182100 0.1 10021269
18:00−8wnw4108367 0.2 1004219
21:00−11wnw489033 0.2 1008131
9 march, tue
tue900:00−13nw34930 0.0 100946
03:00−15nw349513 0.0 101154
06:00−16nw339498 0.0 101238
09:00−13nw469498 0.0 1014250
12:00−10nw468896 0.0 1015538
15:00−10nw468798 0.1 1016655
18:00−14nw3593100 0.0 101786
21:00−17nw349369 0.0 102078
10 march, wed
wed1000:00−19nw349638 0.0 102171
03:00−22nw349621 0.0 102349
06:00−24nw34972 0.0 102461
09:00−22nnw36951 0.0 1026202
12:00−18nnw358813 0.0 1027342
15:00−16nnw34857 0.0 1027398
18:00−20nnw22920 0.0 102720
21:00−22nw22900 0.0 102920
11 march, thu
thu1100:00−23wnw11920 0.0 102920
03:00−23sw12890 0.0 103020
06:00−23ssw228719 0.0 103020
09:00−19s348444 0.0 1030118
12:00−14ssw468699 0.0 1029269
15:00−11s588899 0.1 1028396
18:00−13s479351 0.0 1027124
21:00−14s4109326 0.0 1027153